Content
SEND FEEDBACK

Daily
Averages
Monthly
Summary
United States of America

CLINE, TEXAS


Home > North America > United States > Texas
Elevation: 1000 feet     Latitude: 29 15N     Longitude: 100 05W

WEATHER
 
SELECT A DAY
Number of Records: 256,040;   Date Range: 10/9/03 - 9/18/14
 
SHARE

PRINT THIS DATA

[ ← Previous Day ]
WEATHER ALMANAC - FEBRUARY 13, 2013
[ Next Day → ]
[ °C ]   °F
Weather ElementAverageHighLow
Temperature53.4 °F68 °F (3:15 pm)40.1 °F (7:55 am)
Dewpoint27 °F32 °F (8:55 am)21.4 °F (3:55 pm)
Humidity38.7 %63 % (7:55 am)17 % (3:55 pm)
Barometer30.09 in30.18 in (8:35 am)30.01 in (4:15 pm)
Wind Speed4.8 mph15 mph (1:15 am)
Wind Gust27.6 mph (1:15 am)
Weather ElementAverage
Visibility10 mi
Wind DirectionSSE (159.9 °)

Weather ElementTotal
Precipitation---
Heating Degree Days11 (Base 65)
Growing Degree Days4.1 (Base 50)
Averaged from 71 records on February 13, 2013
WEATHER CONDITIONS BREAKOUT
WIND DIRECTION BREAKOUT
WEATHER BY HOUR - FEBRUARY 13, 2013
[ °C ]   °F
Local TimeTemperatureDewpointHumidityBarometerVisibilityWind DirectionWind SpeedGust SpeedPrecipitationEventsConditions
12:35 AM52.7 °F27.0 °F37 %30.08 in10.0 miNNE (20°)6.9 mphClear
12:55 AM52.7 °F28.0 °F39 %30.09 in10.0 miNNE (20°)12.7 mph17.3 mphClear
1:15 AM52.7 °F28.8 °F40 %30.08 in10.0 miNorth (10°)15.0 mph27.6 mphClear
1:35 AM50.5 °F28.0 °F42 %30.10 in10.0 miNorth (360°)10.4 mphClear
1:55 AM50.2 °F28.9 °F44 %30.10 in10.0 miNorth (360°)13.8 mphClear
2:15 AM49.1 °F28.4 °F45 %30.10 in10.0 miNorth (360°)13.8 mph18.4 mphClear
2:35 AM47.7 °F28.4 °F47 %30.11 in10.0 miNorth (360°)9.2 mphClear
2:55 AM47.7 °F29.1 °F49 %30.10 in10.0 miNorth (360°)6.9 mphClear
3:15 AM47.7 °F29.3 °F49 %30.10 in10.0 miNorth (350°)6.9 mphClear
3:35 AM47.7 °F29.3 °F49 %30.09 in10.0 miNorth (360°)8.1 mphClear
3:55 AM47.7 °F29.3 °F49 %30.09 in10.0 miNorth (350°)8.1 mphClear
4:15 AM47.7 °F28.9 °F48 %30.09 in10.0 miNorth (360°)12.7 mphScattered Clouds
4:35 AM47.7 °F29.8 °F50 %30.11 in10.0 miNNW (340°)6.9 mphClear
4:55 AM47.7 °F29.7 °F50 %30.11 in10.0 miNorth (350°)5.8 mphClear
5:15 AM47.7 °F30.2 °F51 %30.11 in10.0 miNNW (340°)6.9 mphClear
5:35 AM45.1 °F28.8 °F53 %30.12 in10.0 miNNW (330°)8.1 mphClear
5:55 AM44.8 °F29.3 °F55 %30.12 in10.0 miNNW (340°)5.8 mphClear
6:15 AM42.6 °F28.2 °F57 %30.13 in10.0 miCalmClear
6:35 AM43.0 °F28.0 °F56 %30.13 in10.0 miNNW (330°)6.9 mphClear
6:55 AM42.1 °F27.9 °F57 %30.14 in10.0 miCalmClear
7:15 AM40.3 °F27.9 °F61 %30.15 in10.0 miNNW (330°)3.5 mphClear
7:35 AM40.8 °F28.4 °F61 %30.15 in10.0 miCalmClear
7:55 AM40.1 °F28.4 °F63 %30.16 in10.0 miCalmClear
8:15 AM42.6 °F29.5 °F60 %30.17 in10.0 miCalmClear
8:35 AM45.1 °F30.2 °F56 %30.18 in10.0 miCalmClear
8:55 AM47.7 °F32.0 °F55 %30.18 in10.0 miWest (270°)3.5 mphClear
9:15 AM47.7 °F29.8 °F50 %30.18 in10.0 miNNW (340°)8.1 mphClear
9:35 AM49.3 °F30.2 °F48 %30.18 in10.0 miNorth (350°)5.8 mphClear
9:55 AM50.2 °F30.0 °F46 %30.18 in10.0 miWNW (300°)5.8 mphClear
10:15 AM52.3 °F31.1 °F44 %30.18 in10.0 miCalmClear
10:35 AM52.7 °F29.7 °F41 %30.18 in10.0 miCalmClear
10:55 AM53.4 °F29.7 °F40 %30.18 in10.0 miCalmClear
11:15 AM55.0 °F29.7 °F38 %30.17 in10.0 miCalmClear
11:35 AM55.6 °F29.3 °F37 %30.17 in10.0 miWSW (240°)3.5 mphClear
11:55 AM57.7 °F29.3 °F34 %30.16 in10.0 miCalmClear
12:15 PM59.0 °F28.4 °F31 %30.14 in10.0 miSW (230°)5.8 mphClear
12:35 PM59.2 °F28.0 °F31 %30.13 in10.0 miWest (280°)5.8 mphClear
12:55 PM60.3 °F27.7 °F29 %30.12 in10.0 miSSW (210°)4.6 mphClear
1:15 PM60.4 °F25.7 °F27 %30.11 in10.0 miCalmClear
1:35 PM61.5 °F26.6 °F27 %30.10 in10.0 miCalmClear
1:55 PM61.5 °F26.2 °F26 %30.08 in10.0 miCalmClear
2:15 PM62.8 °F26.4 °F25 %30.06 in10.0 miSSW (210°)3.5 mphClear
2:35 PM65.1 °F27.1 °F24 %30.05 in10.0 miSSE (150°)8.1 mphClear
2:55 PM65.3 °F25.7 °F22 %30.04 in10.0 miESE (110°)5.8 mphClear
3:15 PM68.0 °F23.9 °F19 %30.03 in10.0 miSouth (180°)5.8 mphClear
3:35 PM68.0 °F22.8 °F18 %30.02 in10.0 miENE (60°)3.5 mphClear
3:55 PM68.0 °F21.4 °F17 %30.02 in10.0 miSSW (200°)4.6 mphClear
4:15 PM68.0 °F21.6 °F17 %30.01 in10.0 miWSW (240°)3.5 mphClear
4:35 PM68.0 °F21.7 °F17 %30.02 in10.0 miSSW (200°)6.9 mphClear
4:55 PM68.0 °F21.7 °F17 %30.01 in10.0 miSouth (170°)6.9 mphClear
5:15 PM68.0 °F22.6 °F18 %30.01 in10.0 miSouth (180°)5.8 mphClear
5:35 PM68.0 °F23.4 °F19 %30.01 in10.0 miSouth (190°)9.2 mphClear
5:55 PM65.3 °F22.1 °F19 %30.01 in10.0 miSSE (150°)6.9 mphClear
6:15 PM62.6 °F23.4 °F22 %30.02 in10.0 miSSE (150°)6.9 mphClear
6:35 PM59.5 °F23.2 °F25 %30.02 in10.0 miSSE (150°)5.8 mphClear
6:55 PM58.1 °F23.5 °F26 %30.02 in10.0 miSSE (150°)4.6 mphClear
7:15 PM57.7 °F24.6 °F28 %30.03 in10.0 miCalmClear
7:35 PM57.7 °F24.4 °F28 %30.03 in10.0 miSouth (180°)5.8 mphClear
7:55 PM54.3 °F24.4 °F31 %30.03 in10.0 miSSE (150°)3.5 mphClear
8:15 PM52.7 °F24.8 °F34 %30.04 in10.0 miSSE (150°)4.6 mphClear
8:35 PM52.7 °F24.8 °F34 %30.05 in10.0 miCalmClear
8:55 PM52.7 °F23.9 °F33 %30.05 in10.0 miCalmClear
9:15 PM50.2 °F24.8 °F37 %30.06 in10.0 miCalmClear
9:35 PM52.0 °F25.5 °F36 %30.06 in10.0 miCalmClear
9:55 PM47.7 °F25.7 °F42 %30.07 in10.0 miEast (100°)3.5 mphClear
10:15 PM47.7 °F24.1 °F40 %30.08 in10.0 miEast (90°)5.8 mphClear
10:35 PM47.7 °F25.0 °F41 %30.08 in10.0 miEast (90°)5.8 mphClear
10:55 PM47.7 °F27.1 °F45 %30.08 in10.0 miEast (80°)5.8 mphClear
11:15 PM47.7 °F27.1 °F45 %30.08 in10.0 miEast (90°)4.6 mphClear
11:35 PM46.0 °F27.0 °F47 %30.09 in10.0 miCalmClear
11:55 PM45.1 °F27.1 °F49 %30.09 in10.0 miEast (80°)4.6 mphClear
Hourly data recorded from KUVA, located miles away from Cline, Texas







STORIES FROM OUR PARTNERS